Regional Weather Roundup
Issued by NWS

Home | Current Version | Previous Version | Text Only | Print | Product List | Glossary On
Versions: 1 2 3 4 5 6 7 8 9 10 11 12 13 14 15 16 17 18 19 20 21 22 23 24 25 26 27
000
ASUS42 KTBW 270217
RWRFL
FLORIDA REGIONAL WEATHER ROUNDUP
NATIONAL WEATHER SERVICE TAMPA BAY RUSKIN FL
1000 PM EDT THU MAY 26 2016

NOTE: "FAIR" INDICATES FEW OR NO CLOUDS BELOW 12,000 FEET WITH NO
SIGNIFICANT WEATHER AND/OR OBSTRUCTIONS TO VISIBILITY.

FLZ001>010-012>015-112-114-115-270300-
PANHANDLE FLORIDA

CITY           SKY/WX    TMP DP  RH WIND       PRES   REMARKS
PENSACOLA      PTCLDY    77  71  82 S7        30.05F
MILTON NAS     MOCLDY    75  72  90 S7        30.07
CRESTVIEW      CLEAR     76  70  82 S5        30.09R
DUKE FIELD     MOCLDY    76  71  83 S5        30.07R
VALPARAISO     MOCLDY    78  71  81 S7        30.07R
MARY ESTHER    PTCLDY    77  72  83 S7        30.06R
PANAMA CITY    FAIR      73  68  84 CALM      30.07R
APALACHICOLA   CLEAR     72  68  87 W3        30.07R

STATION/POSITION SKY/WX   TEMP    WIND        PRES    WAVE   SWELL
                          AIR SEA DIR/SP/G            HT/PER HT/PER
                          (F)     (DEG/KT/KT) (MB)    (FT/S) (FT/S)
30.1N   87.6W              79 81  140/ 10/ 12 1016.9S   2/ 6   2/ 6
29.2N   88.2W              79 79  130/ 12/ 14 1016.9F
28.8N   86.0W              78 81  110/ 10/ 12 1017.9    3/ 6   3/ 6
PANAMA CITY BEAC                              1018.4R
TOWER C                    76     270/  4/  4 1019.1R
28.5N   84.5W              78 78  360/  6/  8 1017.4F   2/ 5   2/ 5

$$
FLZ011-016>038-118-127-128-134-139-239-270300-
NORTH FLORIDA

CITY           SKY/WX    TMP DP  RH WIND       PRES   REMARKS
MARIANNA       CLOUDY    78  69  73 SW3       30.07R
TALLAHASSEE    PTCLDY    79  64  60 W3        30.08R
PERRY          PTCLDY    76  58  51 E5        30.09R
LIVE OAK       FAIR      77  55  47 E5        30.12
CROSS CITY       N/A     77  56  48 E3        30.08R
LAKE CITY      FAIR      72  54  53 E3        30.12R
GAINESVILLE    CLEAR     70  60  70 E5        30.11R
WILLISTON      FAIR      75  57  53 NE3       30.10R
PALATKA        FAIR      72  66  83 E6        30.11S
MAYPORT NAS    PTCLDY    76  59  55 E12       30.12R
JACKSONVILLE   PTCLDY    69  62  78 NE5       30.12R
JAX NAS        CLEAR     78  62  57 E7        30.12R
JAX CECIL      CLEAR     72  63  73 CALM      30.12R
FERNANDINA BEA FAIR      79  55  44 E6        30.11S
ST AUGUSTINE   MOCLDY    78  64  61 E13       30.12R
PALM COAST     MOCLDY    75  67  76 E9        30.11R

STATION/POSITION SKY/WX   TEMP    WIND        PRES    WAVE   SWELL
                          AIR SEA DIR/SP/G            HT/PER HT/PER
                          (F)     (DEG/KT/KT) (MB)    (FT/S) (FT/S)
SHELL POINT                81     240/  4/  5 1016.5
KEATON BEACH               76      70/  3/  3 1018.3R
CEDAR KEY                  78     360/  5/  7 1018.2R
FERNANDINA                                    1019.7R
30.7N   81.3W                 78                N/A     3/ 7
MAYPORT                                       1019.6R
31.4N   80.9W              77 77  120/ 12/ 14 1020.2R   2/ 8   2/ 8
ST AUGUSTINE               77 80   80/ 13/ 14 1020.7R

$$
FLZ040-043>046-052-053-057-058-063-144-270300-
INTERIOR CENTRAL FLORIDA

CITY           SKY/WX    TMP DP  RH WIND       PRES   REMARKS
OCALA          CLEAR     75  57  53 E6        30.10S
THE VILLAGES     N/A     75  63  64 MISG      30.01R
LEESBURG       PTCLDY    76  62  62 E8        30.11R
SANFORD        CLEAR     73  61  65 NE5       30.09R
ORLANDO EXEC   CLEAR     75  62  64 E5        30.09R
ORLANDO INTL   PTCLDY    73  61  65 E7        30.09R
KISSIMMEE      CLEAR     75  64  69 E7        30.09R
WINTER HAVEN   CLEAR     75  61  61 NE3       30.09R
LAKELAND       CLEAR     75  63  64 E8        30.08R
BARTOW         FAIR      73  61  64 E6        30.09R
OKEECHOBEE     CLEAR     68  64  88 E3        30.06F

$$
FLZ041-047-054-059-064-141-147-270300-
EAST CENTRAL FLORIDA

CITY           SKY/WX    TMP DP  RH WIND       PRES   REMARKS
DAYTONA BEACH  MOCLDY    76  66  71 E8        30.10R
DELAND           N/A     72  64  78 CALM      30.12R
NEW SMYRNA BEA PTCLDY    75  68  78 E8        30.10R
JFK SPACE CTR  CLOUDY    72  67  83 NE3       30.07S
MELBOURNE      PTCLDY    77  63  61 E12       30.07R
VERO BEACH     MOCLDY    77  61  57 E9        30.07S
FT PIERCE      PTCLDY    75  64  68 E6        30.06S

STATION/POSITION SKY/WX   TEMP    WIND        PRES    WAVE   SWELL
                          AIR SEA DIR/SP/G            HT/PER HT/PER
                          (F)     (DEG/KT/KT) (MB)    (FT/S) (FT/S)
28.5N   80.2W              77 79   80/ 16/ 19 1018.2S
28.9N   78.5W              76 79   70/ 14/ 16 1018.4R
TRIDENT PIER                                  1018.3R
28.4N   80.5W                 80                N/A     3/ 5
27.5N   80.2W                 80                N/A     3/ 5

$$
FLZ050-056-061-142-242-148-248-149-249-151-251-155-255-
160-260-270300-
WEST CENTRAL FLORIDA

CITY           SKY/WX    TMP DP  RH WIND       PRES   REMARKS
CRYSTAL RIVER  FAIR      73  59  60 E6        30.08R
INVERNESS      FAIR      73  61  64 E5        30.09S
BROOKSVILLE    CLEAR     74  61  63 E12       30.08R
ZEPHYRHILLS    FAIR      72  58  62 NE5       30.09R
CLEARWATER AIR FAIR      79  57  47 E6        30.05R
ST PETE CLEARW PTCLDY    80  61  52 E12       30.05R
TAMPA INTL     PTCLDY    81  58  45 E7        30.07R
TAMPA EXEC     CLEAR     77  59  53 E5        30.07
PLANT CITY     CLEAR     77  63  61 E7        30.09R
MACDILL AFB    CLEAR     78  63  60 E12       30.05R
PETER O KNIGHT CLEAR     81  63  54 E10       30.06R
ST PETERSBURG  CLEAR     80  64  58 SE16      30.05R
SARASOTA       CLEAR     79  61  53 E10       30.03R
VENICE         NOT AVBL

STATION/POSITION SKY/WX   TEMP    WIND        PRES    WAVE   SWELL
                          AIR SEA DIR/SP/G            HT/PER HT/PER
                          (F)     (DEG/KT/KT) (MB)    (FT/S) (FT/S)
27.3N   84.2W                 81                N/A     2/ 5
CLEARWATER BEACH                              1017.1R
MIDDLE TAMPA BAY NOT AVBL
VENICE                     78 80   80/  8/ 12 1017.0R

$$
FLZ066-069-070-075>078-162-262-165-265-270300-
SOUTHWEST FLORIDA AND KEYS

CITY           SKY/WX    TMP DP  RH WIND       PRES   REMARKS
PUNTA GORDA    CLEAR     75  64  68 E8        30.06R
FT MYERS       CLEAR     77  64  64 E9        30.03R
SOUTHWEST INTL CLEAR     77  63  61 E9        30.03R
NAPLES         PTCLDY    79  64  60 E13       30.01S
MARCO ISLAND   CLEAR     77  61  57 E10       30.02S
MARATHON       PTCLDY    79  66  64 E9        30.00S
KEY WEST NAS   PTCLDY    79  66  64 NE6       30.00S
KEY WEST INTL  CLEAR     79  65  62 E6        30.00S

STATION/POSITION SKY/WX   TEMP    WIND        PRES    WAVE   SWELL
                          AIR SEA DIR/SP/G            HT/PER HT/PER
                          (F)     (DEG/KT/KT) (MB)    (FT/S) (FT/S)
NAPLES                                        1016.2R
26.0N   85.6W              79 81   60/ 14/ 16 1016.8R   4/ 6   2/ 7
DRY TORTUGAS               80      70/ 12/ 13 1016.1S
SAND KEY                   80      90/ 11/ 13 1016.2F
LONG KEY                   81 84   80/ 13/ 16 1016.2R
MOLASSES REEF              80 83   70/ 14/ 15 1016.0F

$$
FLZ067-068-071>074-168-172>174-270300-
SOUTHEAST FLORIDA

CITY           SKY/WX    TMP DP  RH WIND       PRES   REMARKS
W PALM BEACH   PTCLDY    79  61  53 E12       30.05S
FT LAUDER-EXEC CLEAR     78  63  59 E12       30.03S
FT LAUDERDALE  PTCLDY    79  64  60 NE10      30.03R
POMPANO BEACH  CLEAR     78  65  63 E13       30.04R
PEMBROKE PINES CLOUDY    79  65  62 NE10      30.04S
OPA LOCKA      PTCLDY    79  66  64 NE8       30.04R
MIAMI          MOCLDY    77  69  76 NE6       30.03S
WEST KENDALL   CLOUDY    78  67  68 NE9       30.03R
HOMESTEAD      NOT AVBL

STATION/POSITION SKY/WX   TEMP    WIND        PRES    WAVE   SWELL
                          AIR SEA DIR/SP/G            HT/PER HT/PER
                          (F)     (DEG/KT/KT) (MB)    (FT/S) (FT/S)
PORT EVERGLADES            80      50/ 13/ 16 1016.8R
VIRGINIA KEY                                  1016.8R
LAKE WORTH                                    1017.3R
FOWEY ROCKS                80 82   70/ 14/ 16 1017.2R
SETTLEMENT POINT           78      80/ 16/ 18 1018.1R

$$





USA.gov is the U.S. government's official web portal to all federal, state and local government web resources and services.